[Iaude] MPEC X93: 2023 XY1 [a=1.52,e=0.27,i=8.8,H=23.9]

mpec at marsden.cfa.harvard.edu mpec at marsden.cfa.harvard.edu
Wed Dec 6 00:47:56 EST 2023


M.P.E.C. 2023-X93                              Issued 2023 December 6, 05:46 UT

     The Minor Planet Electronic Circulars contain information on unusual
         minor planets, routine data on comets and natural satellites,
         and occasional editorial announcements.  They are published
    on behalf of Division F of the International Astronomical Union by the
          Minor Planet Center, Smithsonian Astrophysical Observatory,
                          Cambridge, MA 02138, U.S.A.
			  
             Prepared using the Tamkin Foundation Computer Network

                              MPC at CFA.HARVARD.EDU
            URL https://www.minorplanetcenter.net/    ISSN 1523-6714

                                    2023 XY1                                    


Observations:
     K23X01Y  C2023 12 04.28639003 50 07.164+19 57 56.20         21.15wXEX093F52
     K23X01Y  C2023 12 04.29806603 50 07.190+19 57 20.17         21.25wXEX093F52
     K23X01Y  C2023 12 04.30972903 50 07.217+19 56 44.06         21.04wXEX093F52
     K23X01Y*1C2023 12 04.33227203 50 04.787+19 55 23.74         20.88GVEX093G96
     K23X01Y 1C2023 12 04.33742803 50 04.794+19 55 06.92         20.41GVEX093G96
     K23X01Y 1C2023 12 04.34256603 50 04.844+19 54 50.80         21.14GVEX093G96
     K23X01Y 1C2023 12 04.34770303 50 04.823+19 54 34.70         20.67GVEX093G96
     K23X01Y KC2023 12 05.42594603 50 28.639+18 58 23.56         20.1 GVEX093474
     K23X01Y KC2023 12 05.43664403 50 28.625+18 57 49.07         21.3 GVEX093474
     K23X01Y KC2023 12 05.44736503 50 28.757+18 57 14.98         21.2 GVEX093474
     K23X01Y KC2023 12 05.45806403 50 28.793+18 56 40.13         20.5 GVEX093474
     K23X01Y !C2023 12 06.22333 03 50 46.19 +18 14 34.3          21.4 RVEX093673
     K23X01Y !C2023 12 06.22802 03 50 46.27 +18 14 19.3                VEX093673

Observer details:
474 Mount John Observatory, Lake Tekapo.  Observers A. C. Gilmore, P. M.
    Kilmartin.  Measurer P. M. Kilmartin.  1.0-m f/7.7 Reflector + CCD.
673 Table Mountain Observatory, Wrightwood.  Observer J. Pittichova.  1.0-m
    f/15 reflector + CCD.
F52 Pan-STARRS 2, Haleakala.  Observers J. Herman, T. Lowe, P. Minguez, A.
    Schultz, I. Smith.  Measurers K. Chambers, T. de Boer, J. Fairlamb, H.
    Gao, M. Huber, C.-C. Lin, E. Magnier, Y. Ramanjooloo, R. Wainscoat, R.
    Weryk.  1.8-m Ritchey-Chretien + CCD.
G96 Mt. Lemmon Survey.  Observer J. K. Hogan.  Measurers E. C. Beshore, D.
    Fay, J. B. Fazekas, D. C. Fuls, A. R. Gibbs, A. D. Grauer, H. Groeller, J.
    K. Hogan, R. A. Kowalski, S. M. Larson, G. J. Leonard, D. Rankin, R. L.
    Seaman, F. C. Shelly, K. W. Wierzchos.  1.5-m reflector + 10K CCD.

Orbital elements:
2023 XY1                                                 Earth MOID = 0.1453 AU
Epoch 2023 Sept. 13.0 TT = JDT 2460200.5                MPC                     
M 294.73150              (2000.0)            P               Q                  
n   0.52844645     Peri.  218.19293     -0.29853280     -0.94357329             
a   1.5151957      Node   249.58635     +0.90895291     -0.23529721             
e   0.2690300      Incl.    8.79791     +0.29100305     -0.23303363             
P   1.87           H   23.91          G   0.15           U   9                  
Residuals in seconds of arc
231204 F52  0.1-  0.1+    231204 G96  0.4+  0.0     231205 474  0.0   0.6-
231204 F52  0.1-  0.2+    231204 G96  0.0   0.3+    231206 673  0.4-  0.3+
231204 F52  0.1+  0.2+    231205 474  0.4+  0.5+    231206 673  0.4+  0.3+
231204 G96  0.1-  0.1+    231205 474  0.7-  0.0
231204 G96  0.1-  0.3-    231205 474  0.3+  0.1+

Ephemeris:
2023 XY1                 a,e,i = 1.52, 0.27, 9                   q = 1.1076
Date    TT    R. A. (2000) Decl.     Delta      r    Elong.  Phase     V
2023 11 06    03 45 11.9 +36 02 00   0.2719  1.2437   155.3    19.5    22.5
...
2023 11 21    03 47 54.5 +29 50 17   0.2103  1.1956   169.8     8.4    21.5
...
2023 11 29    03 48 50.3 +24 20 52   0.1879  1.1732   172.8     6.0    21.1
...
2023 12 05    03 50 19.0 +19 20 23   0.1762  1.1581   167.3    10.7    21.1
2023 12 06    03 50 40.1 +18 26 54   0.1747  1.1558   166.2    11.8    21.2
2023 12 07    03 51 03.5 +17 32 41   0.1733  1.1535   164.9    12.8    21.2
...
2023 12 13    03 54 17.5 +11 57 56   0.1674  1.1407   157.2    19.6    21.3
...
2023 12 21    04 01 29.4 +04 37 41   0.1659  1.1267   147.1    28.3    21.5
...
2024 01 05    04 24 24.3 -06 27 43   0.1780  1.1105   132.1    41.1    22.0

A. U. Tomatic                (C) Copyright 2023 MPC           M.P.E.C. 2023-X93





More information about the Iaude mailing list